This demonstration page uses our WeatherBlox Daily Observations layout. Learn more.

Left ArrowRight Arrow

Hourly Observations for December 2, 2017

Temp ( °F °C ) Dew Point ( °F °C ) Humidity (%) Winds ( mph kmh ) Pressure ( in mb ) Visibility ( mi km ) Precip ( " mm )
12:15 am 00:15 Clear 34 1 32 undefined 93 93 N N/A 30.33 1027 10 16 N/A
12:35 am 00:35 Clear 32 undefined 30 -1 93 93 N N/A 30.33 1027 10 16 N/A
12:55 am 00:55 Clear 32 undefined 32 undefined 100 100 N N/A 30.33 1027 10 16 N/A
1:15 am 01:15 Clear 32 undefined 32 undefined 100 100 N N/A 30.33 1027 10 16 N/A
1:35 am 01:35 Clear 32 undefined 30 -1 93 93 N N/A 30.33 1027 10 16 N/A
1:55 am 01:55 Clear 30 -1 30 -1 100 100 N N/A 30.33 1027 10 16 N/A
2:15 am 02:15 Clear 30 -1 30 -1 100 100 WNW 3 6 30.33 1027 10 16 N/A
2:35 am 02:35 Clear 32 undefined 32 undefined 100 100 N N/A 30.33 1027 10 16 N/A
2:55 am 02:55 Clear 32 undefined 32 undefined 100 100 N N/A 30.33 1027 10 16 N/A
3:15 am 03:15 Clear 32 undefined 32 undefined 100 100 N N/A 30.33 1027 10 16 N/A
3:35 am 03:35 Clear 30 -1 30 -1 100 100 N N/A 30.33 1027 10 16 N/A
3:55 am 03:55 Clear 30 -1 30 -1 100 100 N 3 6 30.33 1027 10 16 N/A
4:15 am 04:15 Clear 30 -1 30 -1 100 100 N 3 6 30.33 1027 10 16 N/A
4:35 am 04:35 Clear 30 -1 30 -1 100 100 N N/A 30.33 1027 10 16 N/A
4:55 am 04:55 Clear 30 -1 30 -1 100 100 N N/A 30.30 1026 10 16 N/A
5:15 am 05:15 Clear 30 -1 30 -1 100 100 N N/A 30.30 1026 10 16 N/A
5:35 am 05:35 Clear 30 -1 30 -1 100 100 NE 3 6 30.30 1026 10 16 N/A
5:55 am 05:55 Clear 30 -1 30 -1 100 100 N N/A 30.30 1026 10 16 N/A
6:15 am 06:15 Partly Cloudy 28 -2 28 -2 100 100 N 3 6 30.30 1026 10 16 N/A
6:35 am 06:35 Mostly Cloudy 30 -1 30 -1 100 100 N 3 6 30.33 1027 10 16 N/A
6:55 am 06:55 Cloudy 32 undefined 32 undefined 100 100 N N/A 30.33 1027 10 16 N/A
7:15 am 07:15 Cloudy 32 undefined 32 undefined 100 100 N N/A 30.33 1027 10 16 N/A
7:35 am 07:35 Cloudy 32 undefined 32 undefined 100 100 N N/A 30.33 1027 10 16 N/A
7:55 am 07:55 Cloudy 34 1 32 undefined 93 93 N N/A 30.33 1027 10 16 N/A
8:15 am 08:15 Cloudy 34 1 32 undefined 93 93 N N/A 30.33 1027 10 16 N/A
8:35 am 08:35 Mostly Cloudy 34 1 32 undefined 93 93 N N/A 30.33 1027 10 16 N/A
8:55 am 08:55 Mostly Cloudy 36 2 34 1 93 93 N N/A 30.33 1027 10 16 N/A
9:15 am 09:15 Partly Cloudy 37 3 34 1 87 87 N N/A 30.33 1027 7 11 N/A
9:35 am 09:35 Sunny 37 3 34 1 87 87 N N/A 30.33 1027 10 16 N/A
9:55 am 09:55 Sunny 39 4 36 2 87 87 N N/A 30.30 1026 10 16 N/A
10:15 am 10:15 Sunny 43 6 36 2 76 76 ESE 3 6 30.33 1027 10 16 N/A
10:35 am 10:35 Sunny 43 6 37 3 81 81 N N/A 30.33 1027 10 16 N/A
10:55 am 10:55 Mostly Cloudy 45 7 37 3 76 76 S 5 7 30.30 1026 10 16 N/A
11:15 am 11:15 Partly Cloudy 46 8 37 3 71 71 SSE 6 9 30.30 1026 10 16 N/A
11:35 am 11:35 Mostly Cloudy 48 9 37 3 66 66 S 8 13 30.30 1026 10 16 N/A
11:55 am 11:55 Cloudy 50 10 37 3 62 62 SSE 8 13 30.27 1025 10 16 N/A
12:15 pm 12:15 Cloudy 50 10 37 3 62 62 SSE 7 11 30.27 1025 10 16 N/A
12:35 pm 12:35 Cloudy 50 10 37 3 62 62 SSE 8 13 30.27 1025 10 16 N/A
12:55 pm 12:55 Mostly Cloudy 50 10 37 3 62 62 SSE 9 15 30.24 1024 10 16 N/A
1:15 pm 13:15 Partly Cloudy 50 10 37 3 62 62 SSE 8 13 30.24 1024 10 16 N/A
1:35 pm 13:35 Sunny 52 11 37 3 58 58 S 10 17 30.24 1024 10 16 N/A
1:55 pm 13:55 Partly Cloudy 52 11 37 3 58 58 SSE 8 13 30.24 1024 10 16 N/A
2:15 pm 14:15 Partly Cloudy 52 11 37 3 58 58 SSE 8 13 30.24 1024 10 16 N/A
2:35 pm 14:35 Sunny 52 11 37 3 58 58 S 8 13 30.24 1024 10 16 N/A
2:55 pm 14:55 Sunny 52 11 39 4 62 62 SSW 6 9 30.24 1024 10 16 N/A
3:15 pm 15:15 Sunny 52 11 39 4 62 62 SSW 8 13 30.24 1024 10 16 N/A
3:35 pm 15:35 Sunny 52 11 39 4 62 62 SSW 7 11 30.24 1024 10 16 N/A
3:55 pm 15:55 Sunny 52 11 39 4 62 62 S 6 9 30.24 1024 10 16 N/A
4:15 pm 16:15 Sunny 52 11 39 4 62 62 S 5 7 30.24 1024 10 16 N/A
4:35 pm 16:35 Sunny 50 10 37 3 62 62 S 6 9 30.24 1024 10 16 N/A
4:55 pm 16:55 Clear 50 10 37 3 62 62 SSE 7 11 30.21 1023 10 16 N/A
5:15 pm 17:15 Clear 50 10 37 3 62 62 S 6 9 30.24 1024 10 16 N/A
5:35 pm 17:35 Clear 50 10 37 3 62 62 SSE 5 7 30.24 1024 10 16 N/A
5:55 pm 17:55 Clear 46 8 37 3 71 71 SSE 6 9 30.24 1024 10 16 N/A
6:15 pm 18:15 Clear 46 8 37 3 71 71 SSE 3 6 30.24 1024 10 16 N/A
6:35 pm 18:35 Clear 46 8 37 3 71 71 SSE 3 6 30.24 1024 10 16 N/A
6:55 pm 18:55 Clear 43 6 37 3 81 81 N N/A 30.24 1024 10 16 N/A
7:15 pm 19:15 Clear 41 5 37 3 87 87 N N/A 30.24 1024 10 16 N/A
7:35 pm 19:35 Clear 41 5 36 2 81 81 N N/A 30.24 1024 10 16 N/A
7:55 pm 19:55 Clear 37 3 36 2 93 93 S 3 6 30.24 1024 10 16 N/A
8:15 pm 20:15 Clear 36 2 36 2 100 100 N N/A 30.24 1024 10 16 N/A
8:35 pm 20:35 Clear 37 3 36 2 93 93 N N/A 30.24 1024 10 16 N/A
8:55 pm 20:55 Clear 37 3 36 2 93 93 N N/A 30.24 1024 10 16 N/A
9:15 pm 21:15 Clear 37 3 36 2 93 93 N N/A 30.24 1024 10 16 N/A
9:35 pm 21:35 Clear 34 1 34 1 100 100 N N/A 30.24 1024 10 16 N/A
9:55 pm 21:55 Clear 36 2 34 1 93 93 N N/A 30.24 1024 10 16 N/A
10:15 pm 22:15 Clear 37 3 36 2 93 93 SE 3 6 30.24 1024 10 16 N/A
10:35 pm 22:35 Clear 37 3 36 2 93 93 ENE 3 6 30.24 1024 10 16 N/A
10:55 pm 22:55 Clear 36 2 36 2 100 100 N N/A 30.24 1024 10 16 N/A
11:15 pm 23:15 Clear 36 2 36 2 100 100 N N/A 30.24 1024 10 16 N/A
11:35 pm 23:35 Clear 34 1 34 1 100 100 N N/A 30.24 1024 10 16 N/A
11:55 pm 23:55 Clear 36 2 36 2 100 100 N N/A 30.21 1023 10 16 N/A

Powered by AerisWeather